Year,Month,Day,Hour,Minute,Value (Times are PST for temperature in C)
2016,06,27,00,00,17.60
2016,06,27,00,01,17.50
2016,06,27,00,02,17.50
2016,06,27,00,03,17.40
2016,06,27,00,05,17.30
2016,06,27,00,06,17.30
2016,06,27,00,07,17.20
2016,06,27,00,08,17.20
2016,06,27,00,10,17.10
2016,06,27,00,11,17.10
2016,06,27,00,12,17.10
2016,06,27,00,13,17.10
2016,06,27,00,15,16.90
2016,06,27,00,16,16.90
2016,06,27,00,17,17.10
2016,06,27,00,18,17.10
2016,06,27,00,19,17.10
2016,06,27,00,20,17.20
2016,06,27,00,21,17.20
2016,06,27,00,22,17.30
2016,06,27,00,23,17.40
2016,06,27,00,24,17.40
2016,06,27,00,25,17.40
2016,06,27,00,27,17.40
2016,06,27,00,28,17.40
2016,06,27,00,29,17.30
2016,06,27,00,30,17.30
2016,06,27,00,32,17.20
2016,06,27,00,33,17.10
2016,06,27,00,34,17.10
2016,06,27,00,35,17.10
2016,06,27,00,37,17.10
2016,06,27,00,38,17.10
2016,06,27,00,39,17.10
2016,06,27,00,40,17.10
2016,06,27,00,42,17.10
2016,06,27,00,43,17.10
2016,06,27,00,44,17.10
2016,06,27,00,45,17.10
2016,06,27,00,47,16.90
2016,06,27,00,48,16.90
2016,06,27,00,49,16.90
2016,06,27,00,50,16.90
2016,06,27,00,51,16.90
2016,06,27,00,52,16.90
2016,06,27,00,53,16.90
2016,06,27,00,54,16.90
2016,06,27,00,55,16.90
2016,06,27,00,56,16.90
2016,06,27,00,57,16.90
2016,06,27,00,58,16.90
2016,06,27,00,59,16.90
2016,06,27,01,00,16.90
2016,06,27,01,01,16.90
2016,06,27,01,02,16.90
2016,06,27,01,03,16.90
2016,06,27,01,04,16.80
2016,06,27,01,05,16.80
2016,06,27,01,06,16.70
2016,06,27,01,07,16.70
2016,06,27,01,08,16.60
2016,06,27,01,09,16.50
2016,06,27,01,10,16.40
2016,06,27,01,11,16.40
2016,06,27,01,12,16.40
2016,06,27,01,13,16.30
2016,06,27,01,14,16.30
2016,06,27,01,15,16.30
2016,06,27,01,16,16.30
2016,06,27,01,17,16.30
2016,06,27,01,18,16.30
2016,06,27,01,19,16.40
2016,06,27,01,20,16.40
2016,06,27,01,21,16.50
2016,06,27,01,22,16.60
2016,06,27,01,23,16.70
2016,06,27,01,24,16.70
2016,06,27,01,25,16.80
2016,06,27,01,26,16.90
2016,06,27,01,27,16.90
2016,06,27,01,28,16.90
2016,06,27,01,29,16.90
2016,06,27,01,30,17.10
2016,06,27,01,31,17.10
2016,06,27,01,32,17.20
2016,06,27,01,33,17.30
2016,06,27,01,35,17.40
2016,06,27,01,36,17.50
2016,06,27,01,37,17.60
2016,06,27,01,38,17.60
2016,06,27,01,39,17.70
2016,06,27,01,40,17.70
2016,06,27,01,41,17.70
2016,06,27,01,42,17.70
2016,06,27,01,43,17.70
2016,06,27,01,44,17.70
2016,06,27,01,45,17.70
2016,06,27,01,47,17.70
2016,06,27,01,48,17.70
2016,06,27,01,49,17.60
2016,06,27,01,50,17.60
2016,06,27,01,52,17.60
2016,06,27,01,53,17.60
2016,06,27,01,54,17.60
2016,06,27,01,55,17.70
2016,06,27,01,56,17.80
2016,06,27,01,57,17.80
2016,06,27,01,58,17.80
2016,06,27,01,59,18.00
2016,06,27,02,00,18.10
2016,06,27,02,01,18.20
2016,06,27,02,02,18.30
2016,06,27,02,03,18.30
2016,06,27,02,04,18.50
2016,06,27,02,05,18.60
2016,06,27,02,06,18.70
2016,06,27,02,07,18.70
2016,06,27,02,08,18.70
2016,06,27,02,09,18.90
2016,06,27,02,10,19.00
2016,06,27,02,11,19.10
2016,06,27,02,12,19.20
2016,06,27,02,13,19.20
2016,06,27,02,14,19.30
2016,06,27,02,15,19.30
2016,06,27,02,16,19.40
2016,06,27,02,17,19.40
2016,06,27,02,18,19.40
2016,06,27,02,19,19.40
2016,06,27,02,20,19.40
2016,06,27,02,21,19.60
2016,06,27,02,22,19.60
2016,06,27,02,23,19.60
2016,06,27,02,24,19.60
2016,06,27,02,25,19.60
2016,06,27,02,26,19.60
2016,06,27,02,27,19.60
2016,06,27,02,28,19.60
2016,06,27,02,29,19.60
2016,06,27,02,30,19.60
2016,06,27,02,31,19.60
2016,06,27,02,32,19.60
2016,06,27,02,33,19.60
2016,06,27,02,34,19.60
2016,06,27,02,35,19.60
2016,06,27,02,36,19.60
2016,06,27,02,37,19.60
2016,06,27,02,38,19.60
2016,06,27,02,39,19.60
2016,06,27,02,40,19.40
2016,06,27,02,41,19.40
2016,06,27,02,42,19.40
2016,06,27,02,43,19.40
2016,06,27,02,44,19.40
2016,06,27,02,45,19.40
2016,06,27,02,46,19.40
2016,06,27,02,47,19.40
2016,06,27,02,48,19.40
2016,06,27,02,49,19.40
2016,06,27,02,50,19.40
2016,06,27,02,51,19.40
2016,06,27,02,52,19.40
2016,06,27,02,53,19.40
2016,06,27,02,54,19.40
2016,06,27,02,55,19.40
2016,06,27,02,56,19.40
2016,06,27,02,57,19.40
2016,06,27,02,58,19.40
2016,06,27,02,59,19.40
2016,06,27,03,00,19.40
2016,06,27,03,01,19.40
2016,06,27,03,02,19.40
2016,06,27,03,03,19.40
2016,06,27,03,04,19.40
2016,06,27,03,05,19.40
2016,06,27,03,06,19.40
2016,06,27,03,07,19.40
2016,06,27,03,08,19.40
2016,06,27,03,09,19.40
2016,06,27,03,10,19.40
2016,06,27,03,11,19.40
2016,06,27,03,12,19.40
2016,06,27,03,13,19.40
2016,06,27,03,14,19.40
2016,06,27,03,15,19.40
2016,06,27,03,16,19.40
2016,06,27,03,17,19.40
2016,06,27,03,18,19.40
2016,06,27,03,19,19.40
2016,06,27,03,20,19.40
2016,06,27,03,21,19.40
2016,06,27,03,22,19.40
2016,06,27,03,23,19.40
2016,06,27,03,24,19.40
2016,06,27,03,25,19.40
2016,06,27,03,26,19.40
2016,06,27,03,27,19.40
2016,06,27,03,28,19.40
2016,06,27,03,29,19.40
2016,06,27,03,30,19.40
2016,06,27,03,31,19.40
2016,06,27,03,32,19.40
2016,06,27,03,33,19.40
2016,06,27,03,34,19.40
2016,06,27,03,35,19.30
2016,06,27,03,36,19.30
2016,06,27,03,37,19.30
2016,06,27,03,38,19.30
2016,06,27,03,39,19.20
2016,06,27,03,40,19.20
2016,06,27,03,41,19.20
2016,06,27,03,42,19.10
2016,06,27,03,43,19.10
2016,06,27,03,44,19.10
2016,06,27,03,45,19.10
2016,06,27,03,46,19.10
2016,06,27,03,47,19.10
2016,06,27,03,48,19.10
2016,06,27,03,49,19.10
2016,06,27,03,50,19.10
2016,06,27,03,51,19.10
2016,06,27,03,52,19.10
2016,06,27,03,53,19.10
2016,06,27,03,54,19.10
2016,06,27,03,55,19.10
2016,06,27,03,56,19.00
2016,06,27,03,57,19.00
2016,06,27,03,58,19.00
2016,06,27,03,59,19.00
2016,06,27,04,00,19.00
2016,06,27,04,01,19.00
2016,06,27,04,02,19.00
2016,06,27,04,03,19.00
2016,06,27,04,04,19.00
2016,06,27,04,05,19.00
2016,06,27,04,06,19.00
2016,06,27,04,07,19.00
2016,06,27,04,08,19.00
2016,06,27,04,09,19.00
2016,06,27,04,10,18.90
2016,06,27,04,11,18.90
2016,06,27,04,12,18.90
2016,06,27,04,13,18.90
2016,06,27,04,15,18.90
2016,06,27,04,16,18.90
2016,06,27,04,17,18.90
2016,06,27,04,18,18.80
2016,06,27,04,20,18.80
2016,06,27,04,22,18.70
2016,06,27,04,23,18.70
2016,06,27,04,25,18.70
2016,06,27,04,27,18.70
2016,06,27,04,28,18.70
2016,06,27,04,30,18.70
2016,06,27,04,32,18.70
2016,06,27,04,33,18.70
2016,06,27,04,34,18.60
2016,06,27,04,35,18.60
2016,06,27,04,37,18.60
2016,06,27,04,38,18.60
2016,06,27,04,39,18.60
2016,06,27,04,40,18.60
2016,06,27,04,42,18.60
2016,06,27,04,43,18.60
2016,06,27,04,44,18.60
2016,06,27,04,45,18.60
2016,06,27,04,47,18.50
2016,06,27,04,48,18.50
2016,06,27,04,49,18.50
2016,06,27,04,50,18.50
2016,06,27,04,52,18.50
2016,06,27,04,53,18.50
2016,06,27,04,55,18.50
2016,06,27,04,57,18.40
2016,06,27,04,58,18.40
2016,06,27,04,59,18.40
2016,06,27,05,00,18.40
2016,06,27,05,02,18.40
2016,06,27,05,04,18.40
2016,06,27,05,05,18.40
2016,06,27,05,06,18.30
2016,06,27,05,07,18.30
2016,06,27,05,09,18.30
2016,06,27,05,10,18.30
2016,06,27,05,11,18.30
2016,06,27,05,12,18.30
2016,06,27,05,14,18.20
2016,06,27,05,15,18.20
2016,06,27,05,16,18.20
2016,06,27,05,17,18.20
2016,06,27,05,19,18.20
2016,06,27,05,20,18.10
2016,06,27,05,21,18.10
2016,06,27,05,22,18.10
2016,06,27,05,23,18.10
2016,06,27,05,24,18.10
2016,06,27,05,26,18.10
2016,06,27,05,27,18.10
2016,06,27,05,28,18.00
2016,06,27,05,29,18.00
2016,06,27,05,31,18.00
2016,06,27,05,32,18.00
2016,06,27,05,33,18.00
2016,06,27,05,34,18.00
2016,06,27,05,35,18.00
2016,06,27,05,36,18.00
2016,06,27,05,38,17.90
2016,06,27,05,39,17.90
2016,06,27,05,40,17.90
2016,06,27,05,41,17.90
2016,06,27,05,43,17.90
2016,06,27,05,44,17.90
2016,06,27,05,45,17.80
2016,06,27,05,46,17.80
2016,06,27,05,48,17.80
2016,06,27,05,49,17.80
2016,06,27,05,50,17.80
2016,06,27,05,51,17.80
2016,06,27,05,53,17.80
2016,06,27,05,54,17.80
2016,06,27,05,55,17.80
2016,06,27,05,56,17.80
2016,06,27,05,57,17.80
2016,06,27,05,58,17.80
2016,06,27,06,00,17.80
2016,06,27,06,01,17.80
2016,06,27,06,02,17.80
2016,06,27,06,03,17.80
2016,06,27,06,05,17.80
2016,06,27,06,06,17.80
2016,06,27,06,07,17.70
2016,06,27,06,08,17.70
2016,06,27,06,10,17.70
2016,06,27,06,11,17.70
2016,06,27,06,12,17.70
2016,06,27,06,13,17.70
2016,06,27,06,15,17.70
2016,06,27,06,16,17.60
2016,06,27,06,17,17.60
2016,06,27,06,18,17.60
2016,06,27,06,19,17.60
2016,06,27,06,20,17.60
2016,06,27,06,22,17.60
2016,06,27,06,23,17.60
2016,06,27,06,24,17.70
2016,06,27,06,25,17.70
2016,06,27,06,26,17.70
2016,06,27,06,27,17.70
2016,06,27,06,29,17.70
2016,06,27,06,30,17.80
2016,06,27,06,31,17.80
2016,06,27,06,32,17.80
2016,06,27,06,34,17.80
2016,06,27,06,35,17.80
2016,06,27,06,36,17.80
2016,06,27,06,37,17.80
2016,06,27,06,38,17.80
2016,06,27,06,39,17.80
2016,06,27,06,40,17.80
2016,06,27,06,41,17.80
2016,06,27,06,43,17.90
2016,06,27,06,44,17.90
2016,06,27,06,45,17.90
2016,06,27,06,46,17.90
2016,06,27,06,48,17.90
2016,06,27,06,49,17.90
2016,06,27,06,50,17.90
2016,06,27,06,51,17.90
2016,06,27,06,53,17.90
2016,06,27,06,54,17.90
2016,06,27,06,55,18.00
2016,06,27,06,56,18.00
2016,06,27,06,58,18.10
2016,06,27,06,59,18.10
2016,06,27,07,00,18.10
2016,06,27,07,01,18.20
2016,06,27,07,02,18.20
2016,06,27,07,03,18.20
2016,06,27,07,04,18.30
2016,06,27,07,05,18.30
2016,06,27,07,06,18.30
2016,06,27,07,07,18.40
2016,06,27,07,08,18.40
2016,06,27,07,09,18.40
2016,06,27,07,10,18.40
2016,06,27,07,11,18.40
2016,06,27,07,12,18.50
2016,06,27,07,13,18.50
2016,06,27,07,15,18.50
2016,06,27,07,16,18.50
2016,06,27,07,17,18.50
2016,06,27,07,18,18.50
2016,06,27,07,20,18.50
2016,06,27,07,21,18.50
2016,06,27,07,22,18.50
2016,06,27,07,23,18.50
2016,06,27,07,25,18.50
2016,06,27,07,26,18.50
2016,06,27,07,27,18.50
2016,06,27,07,28,18.50
2016,06,27,07,29,18.50
2016,06,27,07,30,18.60
2016,06,27,07,31,18.60
2016,06,27,07,32,18.60
2016,06,27,07,33,18.60
2016,06,27,07,34,18.70
2016,06,27,07,35,18.70
2016,06,27,07,36,18.70
2016,06,27,07,37,18.70
2016,06,27,07,38,18.60
2016,06,27,07,39,18.60
2016,06,27,07,40,18.50
2016,06,27,07,41,18.50
2016,06,27,07,42,18.50
2016,06,27,07,43,18.50
2016,06,27,07,44,18.50
2016,06,27,07,45,18.50
2016,06,27,07,46,18.50
2016,06,27,07,47,18.50
2016,06,27,07,48,18.50
2016,06,27,07,49,18.60
2016,06,27,07,50,18.60
2016,06,27,07,52,18.60
2016,06,27,07,53,18.60
2016,06,27,07,54,18.60
2016,06,27,07,55,18.60
2016,06,27,07,57,18.60
2016,06,27,07,58,18.60
2016,06,27,07,59,18.60
2016,06,27,08,00,18.60
2016,06,27,08,01,18.70
2016,06,27,08,02,18.70
2016,06,27,08,03,18.70
2016,06,27,08,04,18.70
2016,06,27,08,05,18.70
2016,06,27,08,06,18.80
2016,06,27,08,07,18.80
2016,06,27,08,08,18.80
2016,06,27,08,09,18.80
2016,06,27,08,10,18.90
2016,06,27,08,11,18.90
2016,06,27,08,12,18.90
2016,06,27,08,13,18.90
2016,06,27,08,14,18.90
2016,06,27,08,15,18.90
2016,06,27,08,16,18.90
2016,06,27,08,17,18.90
2016,06,27,08,18,18.90
2016,06,27,08,19,18.90
2016,06,27,08,20,18.90
2016,06,27,08,21,18.90
2016,06,27,08,22,18.90
2016,06,27,08,23,18.90
2016,06,27,08,24,18.90
2016,06,27,08,25,18.90
2016,06,27,08,26,18.80
2016,06,27,08,27,18.80
2016,06,27,08,28,18.70
2016,06,27,08,29,18.70
2016,06,27,08,30,18.70
2016,06,27,08,31,18.70
2016,06,27,08,32,18.70
2016,06,27,08,33,18.60
2016,06,27,08,34,18.60
2016,06,27,08,35,18.50
2016,06,27,08,36,18.50
2016,06,27,08,37,18.50
2016,06,27,08,38,18.40
2016,06,27,08,39,18.40
2016,06,27,08,40,18.30
2016,06,27,08,41,18.30
2016,06,27,08,42,18.30
2016,06,27,08,43,18.30
2016,06,27,08,44,18.40
2016,06,27,08,45,18.40
2016,06,27,08,46,18.40
2016,06,27,08,47,18.50
2016,06,27,08,48,18.50
2016,06,27,08,49,18.50
2016,06,27,08,50,18.50
2016,06,27,08,51,18.50
2016,06,27,08,52,18.50
2016,06,27,08,53,18.50
2016,06,27,08,54,18.50
2016,06,27,08,55,18.60
2016,06,27,08,56,18.60
2016,06,27,08,57,18.60
2016,06,27,08,58,18.60
2016,06,27,08,59,18.60
2016,06,27,09,00,18.60
2016,06,27,09,01,18.70
2016,06,27,09,02,18.70
2016,06,27,09,03,18.70
2016,06,27,09,04,18.70
2016,06,27,09,05,18.70
2016,06,27,09,06,18.70
2016,06,27,09,07,18.80
2016,06,27,09,08,18.80
2016,06,27,09,09,18.80
2016,06,27,09,10,18.90
2016,06,27,09,11,18.90
2016,06,27,09,12,18.90
2016,06,27,09,13,18.90
2016,06,27,09,14,19.00
2016,06,27,09,15,19.00
2016,06,27,09,16,19.10
2016,06,27,09,17,19.10
2016,06,27,09,18,19.10
2016,06,27,09,19,19.20
2016,06,27,09,20,19.30
2016,06,27,09,21,19.30
2016,06,27,09,22,19.40
2016,06,27,09,23,19.40
2016,06,27,09,24,19.40
2016,06,27,09,25,19.60
2016,06,27,09,26,19.70
2016,06,27,09,27,19.70
2016,06,27,09,28,19.70
2016,06,27,09,29,19.70
2016,06,27,09,30,19.70
2016,06,27,09,31,19.70
2016,06,27,09,32,19.70
2016,06,27,09,33,19.60
2016,06,27,09,34,19.60
2016,06,27,09,35,19.40
2016,06,27,09,36,19.40
2016,06,27,09,37,19.40
2016,06,27,09,38,19.40
2016,06,27,09,39,19.40
2016,06,27,09,40,19.40
2016,06,27,09,41,19.40
2016,06,27,09,42,19.40
2016,06,27,09,43,19.40
2016,06,27,09,44,19.40
2016,06,27,09,45,19.40
2016,06,27,09,46,19.40
2016,06,27,09,47,19.40
2016,06,27,09,48,19.40
2016,06,27,09,49,19.40
2016,06,27,09,50,19.40
2016,06,27,09,51,19.40
2016,06,27,09,52,19.30
2016,06,27,09,53,19.30
2016,06,27,09,54,19.30
2016,06,27,09,55,19.30
2016,06,27,09,56,19.30
2016,06,27,09,57,19.40
2016,06,27,09,58,19.40
2016,06,27,09,59,19.40
2016,06,27,10,00,19.40
2016,06,27,10,01,19.40
2016,06,27,10,02,19.60
2016,06,27,10,03,19.60
2016,06,27,10,04,19.70
2016,06,27,10,05,19.70
2016,06,27,10,07,19.70
2016,06,27,10,08,19.70
2016,06,27,10,10,19.70
2016,06,27,10,11,19.70
2016,06,27,10,12,19.70
2016,06,27,10,13,19.70
2016,06,27,10,15,19.70
2016,06,27,10,16,19.70
2016,06,27,10,17,19.70
2016,06,27,10,18,19.70
2016,06,27,10,20,19.70
2016,06,27,10,21,19.70
2016,06,27,10,22,19.70
2016,06,27,10,23,19.70
2016,06,27,10,25,19.70
2016,06,27,10,26,19.70
2016,06,27,10,27,19.70
2016,06,27,10,28,19.70
2016,06,27,10,29,19.70
2016,06,27,10,30,19.70
2016,06,27,10,32,19.70
2016,06,27,10,33,19.70
2016,06,27,10,34,19.80
2016,06,27,10,35,19.80
2016,06,27,10,37,19.80
2016,06,27,10,39,19.90
2016,06,27,10,40,19.90
2016,06,27,10,42,19.90
2016,06,27,10,44,20.00
2016,06,27,10,45,20.00
2016,06,27,10,46,20.10
2016,06,27,10,47,20.10
2016,06,27,10,49,20.10
2016,06,27,10,50,20.10
2016,06,27,10,51,20.10
2016,06,27,10,52,20.10
2016,06,27,10,54,20.10
2016,06,27,10,55,20.10
2016,06,27,10,56,20.20
2016,06,27,10,57,20.20
2016,06,27,10,59,20.30
2016,06,27,11,00,20.30
2016,06,27,11,01,20.40
2016,06,27,11,02,20.40
2016,06,27,11,04,20.40
2016,06,27,11,05,20.40
2016,06,27,11,06,20.40
2016,06,27,11,07,20.50
2016,06,27,11,08,20.50
2016,06,27,11,09,20.50
2016,06,27,11,11,20.60
2016,06,27,11,12,20.60
2016,06,27,11,13,20.60
2016,06,27,11,14,20.60
2016,06,27,11,16,20.60
2016,06,27,11,17,20.60
2016,06,27,11,18,20.60
2016,06,27,11,19,20.60
2016,06,27,11,20,20.60
2016,06,27,11,21,20.60
2016,06,27,11,23,20.60
2016,06,27,11,24,20.60
2016,06,27,11,25,20.60
2016,06,27,11,26,20.50
2016,06,27,11,27,20.50
2016,06,27,11,28,20.50
2016,06,27,11,30,20.50
2016,06,27,11,31,20.50
2016,06,27,11,32,20.60
2016,06,27,11,33,20.60
2016,06,27,11,35,20.60
2016,06,27,11,36,20.60
2016,06,27,11,37,20.60
2016,06,27,11,38,20.60
2016,06,27,11,40,20.70
2016,06,27,11,41,20.70
2016,06,27,11,42,20.70
2016,06,27,11,43,20.70
2016,06,27,11,44,20.70
2016,06,27,11,45,20.80
2016,06,27,11,46,20.80
2016,06,27,11,47,20.80
2016,06,27,11,48,20.80
2016,06,27,11,49,20.80
2016,06,27,11,50,20.80
2016,06,27,11,52,20.90
2016,06,27,11,53,20.90
2016,06,27,11,54,20.90
2016,06,27,11,55,20.90
2016,06,27,11,56,20.90
2016,06,27,11,57,21.10
2016,06,27,11,58,21.10
2016,06,27,11,59,21.10
2016,06,27,12,00,21.20
2016,06,27,12,01,21.20
2016,06,27,12,03,21.20
2016,06,27,12,04,21.20
2016,06,27,12,05,21.30
2016,06,27,12,06,21.30
2016,06,27,12,07,21.40
2016,06,27,12,08,21.40
2016,06,27,12,10,21.50
2016,06,27,12,11,21.60
2016,06,27,12,12,21.70
2016,06,27,12,13,21.80
2016,06,27,12,15,21.80
2016,06,27,12,16,21.80
2016,06,27,12,17,21.90
2016,06,27,12,18,21.90
2016,06,27,12,20,21.90
2016,06,27,12,21,22.00
2016,06,27,12,22,22.00
2016,06,27,12,23,22.00
2016,06,27,12,24,22.10
2016,06,27,12,25,22.00
2016,06,27,12,26,22.00
2016,06,27,12,27,22.00
2016,06,27,12,28,21.90
2016,06,27,12,29,21.80
2016,06,27,12,30,21.80
2016,06,27,12,31,21.80
2016,06,27,12,32,21.80
2016,06,27,12,33,21.80
2016,06,27,12,34,21.70
2016,06,27,12,35,21.70
2016,06,27,12,36,21.70
2016,06,27,12,37,21.60
2016,06,27,12,38,21.60
2016,06,27,12,39,21.60
2016,06,27,12,40,21.60
2016,06,27,12,41,21.60
2016,06,27,12,42,21.60
2016,06,27,12,43,21.60
2016,06,27,12,44,21.70
2016,06,27,12,45,21.70
2016,06,27,12,46,21.70
2016,06,27,12,47,21.80
2016,06,27,12,49,21.90
2016,06,27,12,50,21.90
2016,06,27,12,51,21.90
2016,06,27,12,52,21.90
2016,06,27,12,54,22.00
2016,06,27,12,55,22.00
2016,06,27,12,56,22.10
2016,06,27,12,57,22.10
2016,06,27,12,58,22.20
2016,06,27,12,59,22.20
2016,06,27,13,00,22.20
2016,06,27,13,01,22.20
2016,06,27,13,02,22.10
2016,06,27,13,03,22.10
2016,06,27,13,04,22.10
2016,06,27,13,05,22.10
2016,06,27,13,06,22.10
2016,06,27,13,07,22.10
2016,06,27,13,08,22.10
2016,06,27,13,09,22.20
2016,06,27,13,10,22.20
2016,06,27,13,11,22.30
2016,06,27,13,12,22.30
2016,06,27,13,13,22.30
2016,06,27,13,14,22.30
2016,06,27,13,15,22.30
2016,06,27,13,16,22.30
2016,06,27,13,17,22.30
2016,06,27,13,18,22.30
2016,06,27,13,19,22.30
2016,06,27,13,20,22.30
2016,06,27,13,21,22.30
2016,06,27,13,22,22.30
2016,06,27,13,23,22.30
2016,06,27,13,24,22.30
2016,06,27,13,25,22.30
2016,06,27,13,26,22.30
2016,06,27,13,27,22.20
2016,06,27,13,28,22.20
2016,06,27,13,29,22.20
2016,06,27,13,30,22.20
2016,06,27,13,31,22.20
2016,06,27,13,32,22.20
2016,06,27,13,33,22.20
2016,06,27,13,34,22.20
2016,06,27,13,35,22.20
2016,06,27,13,36,22.20
2016,06,27,13,37,22.20
2016,06,27,13,38,22.20
2016,06,27,13,39,22.10
2016,06,27,13,40,22.10
2016,06,27,13,41,22.10
2016,06,27,13,42,22.20
2016,06,27,13,43,22.20
2016,06,27,13,44,22.20
2016,06,27,13,45,22.20
2016,06,27,13,46,22.20
2016,06,27,13,47,22.20
2016,06,27,13,48,22.20
2016,06,27,13,49,22.20
2016,06,27,13,50,22.20
2016,06,27,13,51,22.20
2016,06,27,13,52,22.20
2016,06,27,13,53,22.20
2016,06,27,13,54,22.20
2016,06,27,13,55,22.20
2016,06,27,13,56,22.20
2016,06,27,13,57,22.20
2016,06,27,13,58,22.20
2016,06,27,13,59,22.20
2016,06,27,14,00,22.20
2016,06,27,14,01,22.20
2016,06,27,14,02,22.30
2016,06,27,14,03,22.30
2016,06,27,14,04,22.30
2016,06,27,14,05,22.30
2016,06,27,14,06,22.30
2016,06,27,14,07,22.30
2016,06,27,14,08,22.30
2016,06,27,14,09,22.30
2016,06,27,14,10,22.30
2016,06,27,14,11,22.30
2016,06,27,14,12,22.40
2016,06,27,14,13,22.40
2016,06,27,14,14,22.60
2016,06,27,14,15,22.70
2016,06,27,14,16,22.70
2016,06,27,14,17,22.70
2016,06,27,14,18,22.70
2016,06,27,14,19,22.70
2016,06,27,14,20,22.80
2016,06,27,14,21,22.80
2016,06,27,14,22,22.90
2016,06,27,14,23,22.90
2016,06,27,14,24,23.00
2016,06,27,14,25,23.00
2016,06,27,14,26,23.10
2016,06,27,14,27,23.10
2016,06,27,14,28,23.10
2016,06,27,14,29,23.20
2016,06,27,14,30,23.30
2016,06,27,14,31,23.30
2016,06,27,14,32,23.40
2016,06,27,14,33,23.40
2016,06,27,14,34,23.40
2016,06,27,14,35,23.50
2016,06,27,14,36,23.50
2016,06,27,14,37,23.50
2016,06,27,14,38,23.50
2016,06,27,14,39,23.50
2016,06,27,14,40,23.60
2016,06,27,14,42,23.60
2016,06,27,14,43,23.60
2016,06,27,14,44,23.60
2016,06,27,14,45,23.70
2016,06,27,14,46,23.70
2016,06,27,14,47,23.70
2016,06,27,14,49,23.70
2016,06,27,14,50,23.70
2016,06,27,14,51,23.70
2016,06,27,14,52,23.70
2016,06,27,14,54,23.70
2016,06,27,14,55,23.70
2016,06,27,14,56,23.70
2016,06,27,14,57,23.70
2016,06,27,14,59,23.70
2016,06,27,15,01,23.70
2016,06,27,15,02,23.70
2016,06,27,15,03,23.60
2016,06,27,15,04,23.60
2016,06,27,15,06,23.70
2016,06,27,15,07,23.70
2016,06,27,15,08,23.70
2016,06,27,15,09,23.80
2016,06,27,15,11,23.80
2016,06,27,15,13,23.90
2016,06,27,15,14,23.90
2016,06,27,15,15,23.80
2016,06,27,15,16,23.80
2016,06,27,15,18,23.80
2016,06,27,15,19,23.70
2016,06,27,15,20,23.70
2016,06,27,15,21,23.70
2016,06,27,15,23,23.70
2016,06,27,15,25,23.70
2016,06,27,15,26,23.70
2016,06,27,15,27,23.80
2016,06,27,15,28,23.80
2016,06,27,15,30,23.90
2016,06,27,15,31,23.90
2016,06,27,15,32,24.00
2016,06,27,15,33,24.00
2016,06,27,15,35,24.20
2016,06,27,15,36,24.20
2016,06,27,15,37,24.30
2016,06,27,15,38,24.40
2016,06,27,15,40,24.40
2016,06,27,15,41,24.40
2016,06,27,15,42,24.40
2016,06,27,15,43,24.40
2016,06,27,15,45,24.40
2016,06,27,15,46,24.40
2016,06,27,15,47,24.50
2016,06,27,15,48,24.50
2016,06,27,15,49,24.50
2016,06,27,15,50,24.50
2016,06,27,15,52,24.40
2016,06,27,15,53,24.40
2016,06,27,15,54,24.40
2016,06,27,15,55,24.40
2016,06,27,15,56,24.40
2016,06,27,15,57,24.40
2016,06,27,15,59,24.40
2016,06,27,16,00,24.40
2016,06,27,16,01,24.40
2016,06,27,16,02,24.40
2016,06,27,16,04,24.40
2016,06,27,16,05,24.40
2016,06,27,16,06,24.40
2016,06,27,16,07,24.40
2016,06,27,16,09,24.40
2016,06,27,16,10,24.40
2016,06,27,16,11,24.40
2016,06,27,16,12,24.40
2016,06,27,16,13,24.30
2016,06,27,16,14,24.30
2016,06,27,16,15,24.30
2016,06,27,16,16,24.40
2016,06,27,16,17,24.40
2016,06,27,16,18,24.40
2016,06,27,16,19,24.40
2016,06,27,16,21,24.40
2016,06,27,16,22,24.40
2016,06,27,16,23,24.40
2016,06,27,16,24,24.40
2016,06,27,16,25,24.40
2016,06,27,16,26,24.40
2016,06,27,16,27,24.40
2016,06,27,16,28,24.30
2016,06,27,16,29,24.30
2016,06,27,16,30,24.30
2016,06,27,16,31,24.30
2016,06,27,16,32,24.40
2016,06,27,16,33,24.40
2016,06,27,16,34,24.50
2016,06,27,16,35,24.60
2016,06,27,16,36,24.60
2016,06,27,16,37,24.70
2016,06,27,16,38,24.70
2016,06,27,16,39,24.70
2016,06,27,16,40,24.70
2016,06,27,16,42,24.70
2016,06,27,16,43,24.70
2016,06,27,16,44,24.70
2016,06,27,16,45,24.70
2016,06,27,16,46,24.70
2016,06,27,16,47,24.70
2016,06,27,16,48,24.70
2016,06,27,16,49,24.70
2016,06,27,16,50,24.70
2016,06,27,16,51,24.70
2016,06,27,16,52,24.70
2016,06,27,16,54,24.60
2016,06,27,16,55,24.50
2016,06,27,16,56,24.50
2016,06,27,16,57,24.50
2016,06,27,16,58,24.60
2016,06,27,16,59,24.60
2016,06,27,17,01,24.70
2016,06,27,17,02,24.80
2016,06,27,17,03,24.80
2016,06,27,17,04,24.90
2016,06,27,17,05,24.90
2016,06,27,17,06,24.90
2016,06,27,17,07,24.90
2016,06,27,17,08,24.90
2016,06,27,17,09,24.90
2016,06,27,17,10,24.90
2016,06,27,17,11,25.10
2016,06,27,17,12,25.10
2016,06,27,17,13,25.10
2016,06,27,17,14,25.20
2016,06,27,17,15,25.20
2016,06,27,17,16,25.20
2016,06,27,17,17,25.20
2016,06,27,17,18,25.20
2016,06,27,17,19,25.20
2016,06,27,17,20,25.20
2016,06,27,17,21,25.20
2016,06,27,17,22,25.10
2016,06,27,17,23,25.10
2016,06,27,17,24,25.10
2016,06,27,17,25,25.10
2016,06,27,17,26,25.10
2016,06,27,17,27,25.10
2016,06,27,17,28,25.10
2016,06,27,17,29,25.10
2016,06,27,17,30,25.10
2016,06,27,17,31,25.10
2016,06,27,17,32,25.10
2016,06,27,17,33,25.10
2016,06,27,17,34,25.20
2016,06,27,17,35,25.20
2016,06,27,17,36,25.20
2016,06,27,17,37,25.20
2016,06,27,17,38,25.30
2016,06,27,17,39,25.30
2016,06,27,17,40,25.30
2016,06,27,17,42,25.40
2016,06,27,17,43,25.40
2016,06,27,17,44,25.40
2016,06,27,17,45,25.30
2016,06,27,17,47,25.30
2016,06,27,17,48,25.30
2016,06,27,17,49,25.30
2016,06,27,17,50,25.30
2016,06,27,17,51,25.20
2016,06,27,17,52,25.20
2016,06,27,17,53,25.20
2016,06,27,17,54,25.20
2016,06,27,17,55,25.30
2016,06,27,17,56,25.30
2016,06,27,17,57,25.30
2016,06,27,17,58,25.30
2016,06,27,17,59,25.30
2016,06,27,18,00,25.30
2016,06,27,18,01,25.30
2016,06,27,18,02,25.20
2016,06,27,18,03,25.20
2016,06,27,18,04,25.20
2016,06,27,18,05,25.20
2016,06,27,18,06,25.20
2016,06,27,18,07,25.10
2016,06,27,18,08,25.10
2016,06,27,18,09,25.10
2016,06,27,18,10,25.10
2016,06,27,18,11,24.90
2016,06,27,18,12,24.90
2016,06,27,18,13,24.90
2016,06,27,18,14,24.90
2016,06,27,18,15,24.90
2016,06,27,18,16,24.90
2016,06,27,18,17,24.90
2016,06,27,18,18,24.90
2016,06,27,18,19,24.90
2016,06,27,18,20,24.90
2016,06,27,18,21,24.90
2016,06,27,18,22,24.80
2016,06,27,18,23,24.80
2016,06,27,18,24,24.80
2016,06,27,18,25,24.70
2016,06,27,18,26,24.60
2016,06,27,18,27,24.60
2016,06,27,18,28,24.50
2016,06,27,18,29,24.50
2016,06,27,18,30,24.40
2016,06,27,18,31,24.40
2016,06,27,18,32,24.40
2016,06,27,18,33,24.40
2016,06,27,18,34,24.40
2016,06,27,18,35,24.30
2016,06,27,18,36,24.30
2016,06,27,18,37,24.30
2016,06,27,18,38,24.30
2016,06,27,18,39,24.30
2016,06,27,18,40,24.30
2016,06,27,18,41,24.30
2016,06,27,18,42,24.30
2016,06,27,18,43,24.30
2016,06,27,18,44,24.30
2016,06,27,18,45,24.40
2016,06,27,18,46,24.40
2016,06,27,18,47,24.40
2016,06,27,18,48,24.40
2016,06,27,18,49,24.40
2016,06,27,18,50,24.40
2016,06,27,18,51,24.40
2016,06,27,18,52,24.40
2016,06,27,18,53,24.40
2016,06,27,18,54,24.40
2016,06,27,18,55,24.40
2016,06,27,18,56,24.30
2016,06,27,18,57,24.30
2016,06,27,18,58,24.30
2016,06,27,18,59,24.30
2016,06,27,19,00,24.30
2016,06,27,19,01,24.30
2016,06,27,19,02,24.30